Date String (YYYY-MM-DD hh:mm:ss) UTC,Instrument flags,absolute air pressure of the measurement (hPa),sample flow rate (lpm),inlet stack bypass flow (lpm),air temperature of the measurement (°C),ambient temperature measured by the external sensor (°C),aerosol sample conditioner tube jacket temperature (°C),OPC LED temperature (°C),internal box temperature (°C),relative humidity of the measurement (%),span deviation,mass concentration of particles derived from Lorenz-Mie calculation of OPC scattering (μg/m³),mass concentration of particles derived from Lorenz-Mie calculation of OPC scattering (μg/m³),mass concentration of particles derived from Lorenz-Mie calculation of OPC scattering (μg/m³)
DateTimeUTC,F1_M11,P_M11,Q1_M11,Q2_M11,T1_M11,T2_M11,T3_M11,T4_M11,T5_M11,U1_M11,ZSPAN_M11,X2_M11,X0_M11,X1_M11
2023-07-01 06:00:00,SystemResetWarning,0835.0,4.99,000.00,030.1,028.7,000.0,038.6,031.5,22.4,0000.0,0002.96,0007.09,0002.56
2023-07-01 06:01:00,SystemResetWarning,0834.9,4.99,000.00,030.1,028.3,000.0,038.6,031.5,22.3,0000.0,0002.93,0007.32,0002.55
2023-07-01 06:02:00,SystemResetWarning,0834.9,5.00,000.00,030.0,026.3,000.0,038.5,031.2,22.4,0000.0,0002.91,0006.63,0002.55
2023-07-01 06:03:00,SystemResetWarning,0835.0,5.00,000.00,029.9,025.0,000.0,038.4,031.0,22.5,0000.0,0002.88,0006.41,0002.54
2023-07-01 06:04:00,SystemResetWarning,0835.3,5.01,000.00,029.7,024.9,000.0,038.3,030.6,22.7,0000.0,0002.91,0006.49,0002.55
2023-07-01 06:05:00,SystemResetWarning,0835.1,5.01,000.00,029.6,025.3,000.0,038.3,030.5,22.8,0000.0,0002.94,0006.57,0002.55
2023-07-01 06:06:00,SystemResetWarning,0835.0,4.99,000.00,029.5,025.7,000.0,038.3,030.6,22.9,0000.0,0002.96,0006.63,0002.56
2023-07-01 06:07:00,SystemResetWarning,0834.9,5.01,000.00,029.5,026.2,000.0,038.3,030.6,23.1,0000.0,0003.00,0006.77,0002.57
2023-07-01 06:08:00,SystemResetWarning,0834.9,4.98,000.00,029.5,026.5,000.0,038.2,030.7,23.1,0000.0,0003.05,0007.73,0002.61
2023-07-01 06:09:00,SystemResetWarning,0834.9,4.99,000.00,029.5,026.8,000.0,038.2,030.7,23.1,0000.0,0003.09,0007.19,0002.62
2023-07-01 06:10:00,SystemResetWarning,0835.0,5.00,000.00,029.4,027.1,000.0,038.2,030.8,23.1,0000.0,0003.05,0006.54,0002.63
2023-07-01 06:11:00,SystemResetWarning,0835.0,5.01,000.00,029.4,027.3,000.0,038.2,030.8,23.3,0000.0,0003.07,0006.14,0002.64
2023-07-01 06:12:00,SystemResetWarning,0834.9,5.01,000.00,029.4,027.4,000.0,038.2,030.8,23.4,0000.0,0003.06,0005.68,0002.65
2023-07-01 06:13:00,SystemResetWarning,0835.0,5.00,000.00,029.4,027.6,000.0,038.1,030.9,23.4,0000.0,0003.11,0005.74,0002.66
2023-07-01 06:14:00,SystemResetWarning,0835.0,4.99,000.00,029.4,027.7,000.0,038.1,030.9,23.4,0000.0,0003.11,0005.72,0002.67
2023-07-01 06:15:00,SystemResetWarning,0835.0,4.99,000.00,029.4,027.7,000.0,038.1,030.9,23.5,0000.0,0003.11,0005.71,0002.68
2023-07-01 06:16:00,SystemResetWarning,0835.0,4.99,000.00,029.5,027.8,000.0,038.1,030.9,23.3,0000.0,0003.12,0005.75,0002.68
2023-07-01 06:17:00,SystemResetWarning,0835.0,5.00,000.00,029.5,027.9,000.0,038.1,030.9,23.4,0000.0,0003.11,0005.89,0002.66
2023-07-01 06:18:00,SystemResetWarning,0835.0,5.01,000.00,029.5,027.9,000.0,038.1,031.0,23.2,0000.0,0003.13,0006.80,0002.66
2023-07-01 06:19:00,SystemResetWarning,0835.0,5.01,000.00,029.5,028.0,000.0,038.1,031.0,23.2,0000.0,0003.12,0006.47,0002.65
2023-07-01 06:20:00,SystemResetWarning,0834.9,5.00,000.00,029.5,028.0,000.0,038.1,031.0,23.2,0000.0,0003.08,0005.93,0002.63
2023-07-01 06:21:00,SystemResetWarning,0835.0,4.99,000.00,029.5,028.0,000.0,038.1,031.0,23.1,0000.0,0003.06,0005.86,0002.62
2023-07-01 06:22:00,SystemResetWarning,0835.0,4.99,000.00,029.5,028.1,000.0,038.1,031.0,22.8,0000.0,0003.03,0005.74,0002.61
2023-07-01 06:23:00,SystemResetWarning,0834.9,5.00,000.00,029.5,028.1,000.0,038.1,031.1,22.7,0000.0,0003.03,0005.73,0002.61
2023-07-01 06:24:00,SystemResetWarning,0834.9,5.00,000.00,029.5,028.1,000.0,038.1,031.0,22.7,0000.0,0003.01,0005.68,0002.61
2023-07-01 06:25:00,SystemResetWarning,0834.8,5.00,000.00,029.6,028.2,000.0,038.1,031.1,22.7,0000.0,0002.99,0005.67,0002.60
2023-07-01 06:26:00,SystemResetWarning,0834.9,5.01,000.00,029.6,028.2,000.0,038.1,031.1,22.7,0000.0,0002.99,0005.66,0002.59
2023-07-01 06:27:00,SystemResetWarning,0835.1,5.01,000.00,029.6,028.2,000.0,038.1,031.1,22.5,0000.0,0002.96,0005.60,0002.57
2023-07-01 06:28:00,SystemResetWarning,0834.8,5.00,000.00,029.6,028.2,000.0,038.1,031.1,22.6,0000.0,0002.94,0005.44,0002.57
2023-07-01 06:29:00,SystemResetWarning,0834.8,4.99,000.00,029.6,028.2,000.0,038.1,031.1,22.7,0000.0,0002.88,0004.96,0002.56
2023-07-01 06:30:00,SystemResetWarning,0834.9,4.99,000.00,029.6,028.2,000.0,038.1,031.1,22.6,0000.0,0002.81,0003.62,0002.54
2023-07-01 06:31:00,SystemResetWarning,0835.0,5.00,000.00,029.6,028.2,000.0,038.2,031.1,22.6,0000.0,0002.81,0003.57,0002.53
2023-07-01 06:32:00,SystemResetWarning,0835.0,5.00,000.00,029.6,028.2,000.0,038.2,031.1,22.8,0000.0,0002.80,0003.56,0002.52
2023-07-01 06:33:00,SystemResetWarning,0835.0,5.01,000.00,029.6,028.2,000.0,038.2,031.1,22.7,0000.0,0002.82,0003.84,0002.51
2023-07-01 06:34:00,SystemResetWarning,0835.0,5.01,000.00,029.6,028.2,000.0,038.2,031.1,22.8,0000.0,0002.79,0004.72,0002.50
2023-07-01 06:35:00,SystemResetWarning,0835.0,5.00,000.00,029.6,028.3,000.0,038.2,031.1,22.9,0000.0,0002.75,0004.61,0002.49
2023-07-01 06:36:00,SystemResetWarning,0835.0,4.99,000.00,029.7,028.3,000.0,038.2,031.2,22.7,0000.0,0002.72,0004.52,0002.48
2023-07-01 06:37:00,SystemResetWarning,0834.9,5.00,000.00,029.7,028.3,000.0,038.2,031.2,22.6,0000.0,0002.71,0004.52,0002.47
2023-07-01 06:38:00,SystemResetWarning,0834.9,5.00,000.00,029.7,028.3,000.0,038.2,031.2,22.8,0000.0,0002.70,0004.53,0002.47
2023-07-01 06:39:00,SystemResetWarning,0835.0,5.00,000.00,029.7,028.3,000.0,038.2,031.2,22.7,0000.0,0002.70,0004.50,0002.48
2023-07-01 06:40:00,SystemResetWarning,0834.9,5.00,000.00,029.7,028.3,000.0,038.2,031.2,22.9,0000.0,0002.74,0004.62,0002.49
2023-07-01 06:41:00,SystemResetWarning,0835.5,5.00,000.00,029.7,028.3,000.0,038.2,031.2,22.8,0000.0,0002.79,0004.73,0002.50
2023-07-01 06:42:00,SystemResetWarning,0835.3,5.00,000.00,029.7,028.3,000.0,038.3,031.2,22.6,0000.0,0002.78,0004.84,0002.51
2023-07-01 06:43:00,SystemResetWarning,0835.0,5.00,000.00,029.7,028.3,000.0,038.3,031.2,22.5,0000.0,0002.82,0005.28,0002.52
2023-07-01 06:44:00,SystemResetWarning,0834.8,5.00,000.00,029.7,028.3,000.0,038.3,031.2,22.3,0000.0,0002.85,0005.29,0002.53
2023-07-01 06:45:00,SystemResetWarning,0834.7,5.00,000.00,029.7,028.3,000.0,038.3,031.2,22.2,0000.0,0002.89,0004.27,0002.54
2023-07-01 06:46:00,SystemResetWarning,0834.7,5.00,000.00,029.7,028.3,000.0,038.3,031.2,22.4,0000.0,0002.93,0004.37,0002.56
2023-07-01 06:47:00,SystemResetWarning,0834.6,5.00,000.00,029.7,028.3,000.0,038.3,031.2,22.2,0000.0,0002.98,0004.62,0002.55
2023-07-01 06:48:00,SystemResetWarning,0834.9,5.00,000.00,029.7,028.3,000.0,038.3,031.2,22.2,0000.0,0003.02,0004.75,0002.56
2023-07-01 06:49:00,SystemResetWarning,0834.9,5.00,000.00,029.7,028.3,000.0,038.3,031.2,22.1,0000.0,0003.03,0004.67,0002.57
2023-07-01 06:50:00,SystemResetWarning,0835.1,5.00,000.00,029.7,028.3,000.0,038.3,031.2,22.2,0000.0,0003.03,0004.66,0002.57
2023-07-01 06:51:00,SystemResetWarning,0835.3,5.00,000.00,029.7,028.3,000.0,038.3,031.3,22.3,0000.0,0003.02,0004.65,0002.56
2023-07-01 06:52:00,SystemResetWarning,0835.1,5.00,000.00,029.7,028.3,000.0,038.3,031.2,22.3,0000.0,0003.01,0004.66,0002.56
2023-07-01 06:53:00,SystemResetWarning,0835.0,5.01,000.00,029.7,028.3,000.0,038.3,031.2,22.2,0000.0,0003.02,0004.65,0002.57
2023-07-01 06:54:00,SystemResetWarning,0834.7,5.00,000.00,029.7,028.3,000.0,038.3,031.2,22.2,0000.0,0002.99,0004.08,0002.56
2023-07-01 06:55:00,SystemResetWarning,0834.6,5.00,000.00,029.7,028.4,000.0,038.3,031.2,22.2,0000.0,0002.96,0004.04,0002.55
2023-07-01 06:56:00,SystemResetWarning,0835.0,4.99,000.00,029.7,028.4,000.0,038.3,031.2,22.0,0000.0,0002.92,0004.06,0002.54
2023-07-01 06:57:00,SystemResetWarning,0835.1,4.98,000.00,029.7,028.3,000.0,038.3,031.2,22.0,0000.0,0002.94,0004.25,0002.54
2023-07-01 06:58:00,SystemResetWarning,0835.0,5.01,000.00,029.8,028.3,000.0,038.3,031.2,22.0,0000.0,0002.93,0004.28,0002.54
2023-07-01 06:59:00,SystemResetWarning,0834.8,5.01,000.00,029.8,028.4,000.0,038.3,031.2,22.0,0000.0,0002.90,0004.15,0002.54
